GW0308 Weather Reports


time (UTC)temp
C
wind
direction
speed
KPH
gust
KPH
rain 1hr
cm
rain 24hr
cm
rain mn
cm
humidity
%
barometer
mb
20260504012503 17 229 0.0 1.6 0.00 0.00 0.00 49 1003.7
20260504012024 17 229 0.0 1.6 0.00 0.00 0.00 48 1003.6
20260504011503 17 229 0.0 3.2 0.00 0.00 0.00 48 1003.6
20260504011003 18 229 0.0 3.2 0.00 0.00 0.00 46 1003.6
20260504010507 18 229 1.6 3.2 0.00 0.00 0.00 46 1003.6
20260504010003 18 229 1.6 3.2 0.00 0.00 0.00 45 1003.4
20260504005524 18 229 1.6 3.2 0.00 0.00 0.00 44 1003.4
20260504005003 18 229 0.0 3.2 0.00 0.00 0.00 44 1003.6
20260504004524 18 229 0.0 3.2 0.00 0.00 0.00 44 1003.6
20260504004003 19 231 1.6 6.4 0.00 0.00 0.00 43 1003.6
20260504003524 19 233 1.6 6.4 0.00 0.00 0.00 43 1003.6
20260504003006 20 236 1.6 8.0 0.00 0.00 0.00 42 1003.5
20260504002503 20 246 1.6 8.0 0.00 0.00 0.00 41 1003.4
20260504002027 20 242 1.6 11.3 0.00 0.00 0.00 41 1003.4
20260504001503 20 233 3.2 11.3 0.00 0.00 0.00 40 1003.4
20260504001003 20 244 1.6 8.0 0.00 0.00 0.00 41 1003.4
20260504000503 20 254 3.2 14.5 0.00 0.00 0.00 40 1003.4
20260504000007 20 230 4.8 14.5 0.00 0.00 0.00 40 1003.3
20260503235503 20 194 4.8 11.3 0.00 0.00 0.00 40 1003.3
20260503235003 20 210 3.2 11.3 0.00 0.00 0.00 40 1003.3
20260503234524 20 215 4.8 12.9 0.00 0.00 0.00 41 1003.3
20260503234003 20 209 4.8 12.9 0.00 0.00 0.00 39 1003.2
20260503233503 20 212 4.8 14.5 0.00 0.00 0.00 40 1003.2
20260503233003 20 215 6.4 19.3 0.00 0.00 0.00 40 1003.2
20260503232503 20 215 6.4 19.3 0.00 0.00 0.00 40 1003.2
20260503232003 20 212 6.4 12.9 0.00 0.00 0.00 40 1003.2
20260503231524 20 218 6.4 12.9 0.00 0.00 0.00 39 1003.3
20260503231003 20 219 6.4 12.9 0.00 0.00 0.00 40 1003.3
20260503230524 21 235 6.4 14.5 0.00 0.00 0.00 39 1003.3
20260503230003 21 248 6.4 16.1 0.00 0.00 0.00 39 1003.4
20260503225503 20 227 8.0 16.1 0.00 0.00 0.00 40 1003.4
20260503225003 20 222 8.0 17.7 0.00 0.00 0.00 40 1003.6
20260503224512 20 219 8.0 17.7 0.00 0.00 0.00 40 1003.6
20260503224003 21 223 6.4 17.7 0.00 0.00 0.00 39 1003.6
20260503223510 20 234 6.4 16.1 0.00 0.00 0.00 40 1003.6
20260503223003 20 233 9.7 29.0 0.00 0.00 0.00 40 1003.6
20260503222503 20 242 8.0 29.0 0.00 0.00 0.00 40 1003.7
20260503222004 20 225 8.0 17.7 0.00 0.00 0.00 42 1003.8
20260503221503 20 194 8.0 17.7 0.00 0.00 0.00 42 1003.7
20260503221003 20 195 8.0 16.1 0.00 0.00 0.00 43 1003.7
20260503220524 20 207 8.0 16.1 0.00 0.00 0.00 41 1003.7
20260503220006 20 216 8.0 16.1 0.00 0.00 0.00 42 1003.7
20260503215503 20 217 8.0 17.7 0.00 0.00 0.00 43 1003.7
20260503215003 20 213 8.0 20.9 0.00 0.00 0.00 45 1003.8
20260503214503 20 205 9.7 20.9 0.00 0.00 0.00 43 1003.7
20260503214003 20 207 9.7 19.3 0.00 0.00 0.00 42 1003.8
20260503213507 20 200 9.7 20.9 0.00 0.00 0.00 43 1003.7
20260503213003 20 200 9.7 20.9 0.00 0.00 0.00 42 1003.8
20260503212503 20 202 9.7 19.3 0.00 0.00 0.00 43 1003.8
20260503212003 20 208 8.0 19.3 0.00 0.00 0.00 43 1003.8
20260503211503 20 209 8.0 20.9 0.00 0.00 0.00 42 1003.9
20260503211003 19 193 11.3 20.9 0.00 0.00 0.00 43 1003.9
20260503210504 19 194 9.7 20.9 0.00 0.00 0.00 43 1003.9
20260503210003 19 195 11.3 29.0 0.00 0.00 0.00 44 1004.1
20260503205003 18 192 12.9 22.5 0.00 0.00 0.00 43 1004.3
20260503204524 19 197 11.3 22.5 0.00 0.00 0.00 43 1004.2
20260503204024 19 206 9.7 25.7 0.00 0.00 0.00 44 1004.2
20260503203503 19 212 9.7 25.7 0.00 0.00 0.00 43 1004.3
20260503203003 19 220 9.7 19.3 0.00 0.00 0.00 44 1004.5
20260503202503 19 220 8.0 22.5 0.00 0.00 0.00 43 1004.6
20260503202003 19 201 9.7 22.5 0.00 0.00 0.00 43 1004.7
20260503201003 18 198 11.3 25.7 0.00 0.00 0.00 43 1004.8
20260503200503 18 190 12.9 25.7 0.00 0.00 0.00 44 1004.9
20260503200004 18 189 12.9 25.7 0.00 0.00 0.00 44 1004.9
20260503195503 18 196 11.3 22.5 0.00 0.00 0.00 44 1004.9
20260503195003 18 196 11.3 22.5 0.00 0.00 0.00 43 1005.0
20260503194503 18 194 12.9 24.1 0.00 0.00 0.00 44 1005.1
20260503194004 18 195 12.9 24.1 0.00 0.00 0.00 43 1005.2
20260503193503 18 195 11.3 24.1 0.00 0.00 0.00 47 1005.3
20260503193003 18 196 11.3 25.7 0.00 0.00 0.00 48 1005.4
20260503192524 18 197 12.9 25.7 0.00 0.00 0.00 47 1005.4
20260503192003 17 195 12.9 25.7 0.00 0.00 0.00 47 1005.5
20260503191503 17 192 12.9 24.1 0.00 0.00 0.00 49 1005.6
20260503191003 17 190 11.3 24.1 0.00 0.00 0.00 47 1005.6
20260503190504 17 202 11.3 20.9 0.00 0.00 0.00 46 1005.7
20260503190003 17 214 11.3 25.7 0.00 0.00 0.00 47 1005.7
20260503185525 17 212 12.9 25.7 0.00 0.00 0.00 46 1005.8
20260503185024 17 204 12.9 24.1 0.00 0.00 0.00 47 1005.9
20260503184504 17 195 12.9 29.0 0.00 0.00 0.00 48 1005.9
20260503184003 17 194 14.5 29.0 0.00 0.00 0.00 46 1005.8
20260503183524 17 196 12.9 30.6 0.00 0.00 0.00 48 1006.0
20260503183024 17 196 12.9 30.6 0.00 0.00 0.00 46 1006.1
20260503182503 17 194 14.5 29.0 0.00 0.00 0.00 46 1006.0
20260503182003 17 197 16.1 29.0 0.00 0.00 0.00 45 1006.1
20260503181504 17 200 14.5 29.0 0.00 0.00 0.00 46 1006.0
20260503181004 17 194 14.5 29.0 0.00 0.00 0.00 47 1006.2
20260503180503 16 195 14.5 30.6 0.00 0.00 0.00 49 1006.2
20260503180024 16 193 16.1 32.2 0.00 0.00 0.00 49 1006.3
20260503175504 16 188 16.1 32.2 0.00 0.00 0.00 49 1006.3
20260503175004 16 187 16.1 29.0 0.00 0.00 0.00 49 1006.4
20260503174503 16 185 16.1 29.0 0.00 0.00 0.00 48 1006.5
20260503174003 16 185 16.1 32.2 0.00 0.00 0.00 49 1006.7
20260503173503 16 186 16.1 35.4 0.00 0.00 0.00 50 1006.7
20260503173024 16 191 14.5 35.4 0.00 0.00 0.00 50 1006.7
20260503172504 16 193 12.9 29.0 0.00 0.00 0.00 50 1007.0
20260503172025 16 190 14.5 32.2 0.00 0.00 0.00 53 1007.0
20260503171503 16 189 14.5 32.2 0.00 0.00 0.00 53 1007.1
20260503171024 16 191 14.5 30.6 0.00 0.00 0.00 54 1007.3
20260503170503 15 192 14.5 30.6 0.00 0.00 0.00 54 1007.4
20260503151003 11 191 8.0 17.7 0.00 0.00 0.00 69 1009.2
20260503150524 11 192 8.0 17.7 0.00 0.00 0.00 69 1009.2
20260503131003 11 204 8.0 14.5 0.00 0.00 0.00 61 1009.8
20260503130503 11 202 8.0 14.5 0.00 0.00 0.00 61 1009.8
20260503110503 8 194 3.2 6.4 0.00 0.00 0.00 62 1010.1
20260503090503 8 192 4.8 11.3 0.00 0.00 0.00 57 1010.9
20260503081503 8 198 3.2 8.0 0.00 0.00 0.00 57 1011.4
20260503081003 8 193 3.2 9.7 0.00 0.00 0.00 57 1011.3
20260503080503 8 193 4.8 12.9 0.00 0.00 0.00 57 1011.3
20260503072503 8 189 4.8 9.7 0.00 0.00 0.00 56 1011.4
20260503072003 8 190 6.4 9.7 0.00 0.00 0.00 56 1011.5
20260503071524 8 189 4.8 8.0 0.00 0.00 0.00 56 1011.6
20260503071003 8 189 4.8 8.0 0.00 0.00 0.00 55 1011.6
20260503070503 8 188 4.8 11.3 0.00 0.00 0.00 56 1011.6
20260503055024 9 192 3.2 6.4 0.00 0.00 0.00 56 1012.3
20260503054503 9 191 3.2 8.0 0.00 0.00 0.00 55 1012.4
20260503054003 9 186 3.2 8.0 0.00 0.00 0.00 55 1012.4
20260503053503 9 186 3.2 8.0 0.00 0.00 0.00 55 1012.4
20260503053003 8 187 3.2 8.0 0.00 0.00 0.00 56 1012.5
20260503052503 8 186 1.6 6.4 0.00 0.00 0.00 56 1012.5
20260503052003 8 183 1.6 4.8 0.00 0.00 0.00 56 1012.6
20260503051503 8 190 1.6 6.4 0.00 0.00 0.00 56 1012.6
20260503051003 8 197 3.2 6.4 0.00 0.00 0.00 56 1012.7
20260503050503 8 197 3.2 8.0 0.00 0.00 0.00 56 1012.7
20260503050003 8 196 3.2 9.7 0.00 0.00 0.00 56 1012.6
20260503045503 8 191 3.2 9.7 0.00 0.00 0.00 57 1012.6
20260503045003 8 186 3.2 8.0 0.00 0.00 0.00 56 1012.7
20260503044503 8 188 3.2 8.0 0.00 0.00 0.00 56 1012.7
20260503044025 8 192 3.2 8.0 0.00 0.00 0.00 56 1012.7
20260503043503 8 188 3.2 8.0 0.00 0.00 0.00 56 1012.8
20260503043003 8 184 3.2 8.0 0.00 0.00 0.00 57 1012.8
20260503042524 8 184 3.2 6.4 0.00 0.00 0.00 57 1012.8
20260503042003 8 189 3.2 6.4 0.00 0.00 0.00 57 1012.9
20260503041503 8 195 1.6 6.4 0.00 0.00 0.00 57 1012.9
20260503041003 8 197 1.6 6.4 0.00 0.00 0.00 57 1012.9
20260503040524 8 197 1.6 6.4 0.00 0.00 0.00 58 1013.0
20260503040003 8 197 1.6 3.2 0.00 0.00 0.00 57 1013.1
20260503035503 8 197 1.6 3.2 0.00 0.00 0.00 58 1013.1
20260503035003 8 197 1.6 3.2 0.00 0.00 0.00 57 1013.1
20260503034503 8 197 1.6 3.2 0.00 0.00 0.00 57 1013.2
20260503034024 8 197 1.6 3.2 0.00 0.00 0.00 57 1013.3
20260503033503 8 197 1.6 3.2 0.00 0.00 0.00 57 1013.3
20260503033003 8 197 1.6 3.2 0.00 0.00 0.00 57 1013.3
20260503032503 8 197 1.6 3.2 0.00 0.00 0.00 56 1013.4
20260503032003 8 197 1.6 3.2 0.00 0.00 0.00 56 1013.4
20260503031503 8 197 1.6 3.2 0.00 0.00 0.00 56 1013.4
20260503031003 8 197 1.6 3.2 0.00 0.00 0.00 56 1013.5
20260503030524 8 197 0.0 1.6 0.00 0.00 0.00 56 1013.6
20260503030003 8 197 0.0 1.6 0.00 0.00 0.00 55 1013.6
20260503025503 9 197 0.0 1.6 0.00 0.00 0.00 54 1013.7
20260503025024 9 197 0.0 1.6 0.00 0.00 0.00 54 1013.6
20260503024524 9 197 0.0 3.2 0.00 0.00 0.00 53 1013.6
20260503024003 9 197 0.0 3.2 0.00 0.00 0.00 53 1013.6
20260503023503 9 197 0.0 1.6 0.00 0.00 0.00 52 1013.6
20260503023003 10 197 0.0 1.6 0.00 0.00 0.00 52 1013.6
20260503022503 10 197 0.0 1.6 0.00 0.00 0.00 52 1013.6
20260503022003 10 197 0.0 3.2 0.00 0.00 0.00 51 1013.6
20260503021503 10 197 0.0 3.2 0.00 0.00 0.00 51 1013.6
20260503021024 10 197 0.0 3.2 0.00 0.00 0.00 51 1013.6
20260503020503 10 0 0.0 0.0 0.00 0.00 0.00 51 1013.6
20260503020003 10 0 0.0 0.0 0.00 0.00 0.00 50 1013.6
20260503015524 10 0 0.0 0.0 0.00 0.00 0.00 49 1013.5
20260503015003 10 0 0.0 0.0 0.00 0.00 0.00 49 1013.5
20260503014524 10 0 0.0 0.0 0.00 0.00 0.00 49 1013.5
20260503014003 11 0 0.0 0.0 0.00 0.00 0.00 48 1013.4
20260503013503 11 0 0.0 0.0 0.00 0.00 0.00 48 1013.4
20260503013003 11 0 0.0 0.0 0.00 0.00 0.00 47 1013.4